RH
21 20 20 20 15 14 18 15 11 6 7 9 10 9 9 8 9 11 14 14 10 6 6 4 3 3 2 3 3 3 3 3 3 4 5 5 4 3 3 3 3 3 3
43 21 23 26 21 13 19 16 10 6 6 8 9 9 9 9 9 11 14 13 14 14 12 10 6 4 3 3 3 3 3 3 5 6 6 6 5 3 3 3 3 3 3
67 29 25 26 26 13 23 17 9 6 6 8 9 9 10 12 17 27 26 19 14 14 14 14 11 9 6 5 4 4 4 6 7 7 7 6 5 4 3 3 3 3 3
70 40 26 26 27 19 25 15 8 6 6 8 8 9 11 17 22 28 27 26 23 20 17 18 16 11 8 7 7 8 8 8 8 8 8 7 5 4 4 4 4 4 4
71 63 26 28 28 24 26 14 8 6 6 8 8 9 19 27 28 26 25 26 27 26 25 20 18 14 11 10 11 12 13 14 11 9 8 7 7 6 6 6 6 6 7
67 78 34 26 30 31 26 17 8 6 7 8 8 14 29 31 28 27 27 28 28 27 26 24 22 19 16 18 21 23 21 19 15 12 10 9 8 8 8 8 8 8 8
53 75 59 27 28 37 28 25 10 7 7 8 8 18 32 33 29 27 26 25 27 29 28 28 28 26 24 24 26 26 25 27 31 32 26 14 8 8 7 7 7 7 7
48 70 76 51 27 37 31 30 17 8 8 8 8 19 35 34 31 29 26 25 29 31 28 28 29 28 29 29 26 24 24 24 27 28 32 33 28 16 10 9 9 9 9
42 75 82 74 31 28 35 29 28 9 8 8 8 18 37 35 32 30 28 28 30 27 25 24 23 22 25 29 33 32 35 36 37 37 33 34 34 34 30 21 16 13 11
41 58 68 64 53 27 30 30 30 20 8 8 9 15 37 37 35 32 31 29 28 26 26 25 24 22 21 18 19 21 21 28 33 33 40 44 42 42 43 36 30 26 16
56 46 57 55 53 31 28 28 31 32 12 9 9 13 34 39 37 36 33 31 30 29 31 32 32 29 30 28 28 26 23 20 22 27 31 37 43 44 45 43 33 33 32
79 60 55 49 49 41 28 28 27 33 26 10 9 11 25 42 40 39 36 35 34 36 38 38 38 36 36 33 31 32 29 27 26 22 25 29 35 41 41 39 39 35 33
50 68 51 53 54 48 33 32 29 29 32 18 10 10 17 40 43 42 41 41 42 44 41 41 43 46 45 41 39 36 32 26 18 25 27 23 24 25 25 26 25 24 28
74 63 37 52 59 57 48 34 34 27 29 30 13 10 14 30 46 46 46 46 44 44 43 44 46 48 50 52 45 39 31 24 15 13 19 30 29 26 25 24 23 20 18
67 90 67 44 57 67 61 42 40 31 25 29 26 11 11 19 41 50 51 50 50 48 47 48 51 53 54 53 52 40 33 23 15 9 12 15 17 18 25 28 29 26 23
93 83 90 74 41 67 64 57 43 39 28 24 28 21 11 14 22 45 53 54 54 52 51 52 55 56 56 58 52 43 37 30 17 10 9 10 10 12 13 13 14 14 16
94 95 98 94 69 68 86 64 50 45 34 25 26 28 16 12 15 20 52 56 57 56 55 56 56 55 58 57 55 49 45 39 28 21 16 16 12 15 20 21 18 20 25
98 96 88 96 98 58 90 70 59 48 44 31 27 29 27 13 12 14 31 57 60 61 59 60 62 61 59 60 61 56 54 51 46 40 31 25 26 27 29 32 30 27 27
98 96 90 98 98 90 94 78 70 54 47 42 34 30 30 23 13 14 14 46 62 64 64 64 70 67 64 64 63 61 61 56 57 55 43 36 35 38 48 55 50 45 42
93 93 96 95 96 96 96 83 78 56 51 47 44 37 33 30 19 14 14 33 64 68 68 72 73 73 73 72 69 67 65 64 65 61 55 43 42 49 53 60 60 50 50
62 73 96 96 96 97 96 91 92 66 52 55 50 46 40 35 29 16 15 20 55 70 71 75 80 80 80 80 79 79 81 79 74 64 61 52 56 70 68 74 73 65 58
22 42 93 96 96 93 96 96 90 88 59 50 56 50 44 40 35 23 16 17 38 68 76 82 87 84 83 86 87 89 88 88 87 74 67 68 70 69 74 74 65 67 53
22 20 50 90 96 97 98 95 96 94 83 63 61 64 51 43 39 27 19 19 25 56 78 87 95 95 93 93 94 92 94 96 93 86 83 73 77 69 69 71 62 56 54
28 26 29 63 92 94 97 97 95 97 97 89 71 72 62 51 44 35 25 23 27 41 64 82 93 97 95 90 89 94 84 88 96 95 88 85 83 76 72 79 66 55 48
18 19 20 24 76 94 98 96 92 97 96 97 96 95 95 66 54 66 46 39 41 72 82 78 89 92 96 93 93 96 92 95 93 75 75 90 80 83 72 93 68 55 45
12 15 17 17 33 42 40 93 92 97 97 97 97 97 94 95 94 91 74 82 95 95 96 91 97 97 96 96 97 96 94 79 69 66 69 63 81 73 76 97 94 80 61
Wind_Speed
25 23 21 19 18 17 16 14 14 15 14 11 8 5 5 6 6 6 6 7 7 7 7 6 6 5 4 4 2 0 2 3 5 6 8 9 9 8 7 7 7 9 10
24 24 23 21 20 20 19 17 17 17 16 14 10 8 7 7 6 6 5 5 6 5 5 4 3 3 1 1 1 2 2 3 4 5 7 8 9 9 8 7 8 8 10
25 26 25 23 22 21 20 19 20 20 18 16 13 10 10 9 8 6 5 5 5 5 4 4 3 3 2 1 1 1 2 3 5 6 7 8 8 9 8 8 8 9 10
30 28 27 26 24 23 22 21 22 22 21 18 15 13 12 11 9 6 4 4 4 3 3 3 3 2 2 1 1 1 2 4 7 8 9 8 8 8 8 8 8 9 9
32 28 27 27 26 25 24 22 24 24 23 21 18 17 15 12 10 7 6 5 4 4 4 3 2 2 1 2 3 4 5 6 6 7 8 8 8 8 8 8 8 8 8
33 30 28 28 28 26 25 24 25 26 25 22 20 19 18 15 12 8 8 7 6 5 5 5 4 4 4 4 5 5 6 7 7 8 8 9 9 9 8 8 8 7 8
37 37 31 28 29 29 27 26 26 28 27 25 23 22 20 16 13 10 9 8 7 7 5 5 6 6 6 7 7 6 6 7 8 9 9 10 10 11 10 10 10 11 11
41 41 41 32 31 31 30 29 28 30 28 27 26 25 22 19 15 12 11 9 9 8 6 5 6 7 8 9 9 9 10 10 10 10 9 10 12 12 12 12 13 13 13
44 43 39 40 34 33 33 32 30 31 30 29 28 27 24 21 18 15 13 12 11 8 7 5 6 7 8 7 8 9 10 10 11 11 11 12 12 13 13 13 14 14 14
47 46 44 44 38 35 34 34 33 32 32 32 30 29 27 23 21 19 17 15 13 10 6 5 5 7 8 9 8 8 9 9 9 11 11 12 12 13 13 14 15 15 16
54 49 47 46 43 39 36 36 36 34 33 34 33 32 31 27 24 22 20 17 14 13 9 7 6 8 8 9 9 10 10 11 12 12 11 11 13 13 14 15 16 17 18
51 55 50 47 44 43 39 38 39 36 37 36 35 35 34 31 27 24 22 19 16 15 11 10 8 8 11 12 11 12 12 14 15 15 14 12 13 14 15 15 16 17 18
59 48 54 51 47 44 42 40 40 40 40 38 38 37 35 33 30 27 25 22 20 18 14 13 11 11 13 14 14 14 15 17 18 18 16 16 16 16 16 16 18 18 20
60 59 60 56 51 46 43 42 41 41 42 41 41 40 38 37 33 31 28 26 24 21 19 17 14 12 14 16 15 14 16 18 19 18 20 20 19 18 19 20 21 21 22
67 57 58 59 54 50 46 43 43 43 45 44 42 41 40 39 38 35 32 30 27 25 23 21 19 16 15 17 18 17 18 19 21 20 19 21 21 22 23 24 24 26 27
67 66 62 61 59 54 48 43 44 45 45 45 45 44 43 43 42 39 37 34 31 30 28 25 23 19 19 18 18 18 19 21 21 21 21 21 22 23 24 27 27 29 31
67 52 50 54 62 54 50 47 46 47 46 47 47 46 46 45 44 44 41 39 36 34 32 30 28 25 22 22 21 21 22 23 22 23 23 24 24 25 27 29 29 30 32
62 50 52 53 52 59 53 51 49 51 50 48 48 47 47 46 46 45 45 42 40 38 36 34 31 28 27 27 26 26 26 27 27 29 28 28 28 28 29 30 32 34 35
71 64 65 69 45 62 57 60 55 54 54 51 48 48 47 48 47 46 46 45 43 42 40 38 35 33 31 31 30 30 30 31 32 33 34 33 33 33 33 34 36 39 41
68 63 50 55 50 48 63 66 59 57 54 52 49 48 49 49 49 48 47 47 46 45 44 41 39 37 34 34 33 33 33 33 36 35 36 38 38 39 39 39 41 43 40
69 66 54 38 51 57 46 70 60 58 56 53 50 50 49 50 49 49 49 49 48 47 47 45 42 41 39 37 36 37 36 37 38 39 39 39 41 42 44 44 45 45 43
64 63 65 38 36 42 67 49 61 57 56 56 52 51 49 48 49 50 49 49 49 49 48 47 45 43 43 41 41 40 40 39 41 41 40 42 44 45 45 49 48 46 46
59 63 66 56 32 32 40 42 57 63 59 55 52 49 50 49 49 50 49 49 50 50 49 50 48 46 46 45 47 46 41 42 41 43 42 44 44 45 48 47 45 43 46
54 56 58 57 42 37 36 28 32 51 60 57 55 52 53 51 49 49 50 49 49 49 52 53 52 52 51 52 55 50 43 44 44 44 46 47 49 50 49 47 45 44 44
54 51 48 50 65 54 42 28 26 30 44 56 63 62 55 53 52 53 52 51 50 51 54 54 53 58 58 58 58 53 50 41 41 45 51 52 48 52 48 48 47 46 45
46 48 44 48 53 51 54 49 33 21 22 28 40 50 59 63 64 57 55 55 53 54 56 61 57 55 57 61 53 50 45 46 46 50 52 48 47 47 47 52 50 48 49
Wind_Direction
226 224 221 219 210 203 203 202 205 201 194 192 190 185 165 146 135 121 110 106 108 110 107 106 116 130 147 156 158 134 11 10 17 14 7 1 356 356 359 2 3 359 1
233 226 225 224 220 208 202 204 204 200 196 195 194 191 174 159 151 135 124 119 117 114 112 109 113 117 124 123 322 331 339 347 358 355 354 349 344 340 341 343 346 351 354
234 230 227 226 222 215 209 207 205 198 196 196 194 191 177 171 165 160 147 138 139 136 135 139 147 147 171 210 270 319 336 339 336 339 341 338 339 337 333 329 332 337 341
230 227 226 224 223 218 214 209 208 201 197 195 194 188 181 180 179 183 178 161 166 165 176 173 156 158 166 187 176 348 325 331 327 328 327 329 330 330 327 328 333 336 341
227 225 223 224 222 219 216 211 210 204 200 196 193 186 185 188 192 193 216 218 215 213 227 220 207 206 222 286 300 301 315 319 325 331 335 335 338 337 340 345 349 348 349
222 227 221 221 221 219 218 213 210 207 201 198 194 188 188 195 200 208 211 209 216 227 237 241 239 243 261 279 292 302 311 319 328 332 331 327 329 327 332 333 331 331 326
220 223 222 219 220 217 215 216 211 209 204 199 195 191 193 200 205 206 201 200 200 204 219 238 247 255 262 269 276 282 293 302 313 314 315 311 312 312 314 311 310 310 310
220 220 221 221 217 216 215 216 213 212 207 202 197 194 197 202 204 207 201 194 193 199 216 235 250 261 268 269 268 271 280 284 292 292 295 302 302 302 305 307 308 308 307
217 219 214 216 216 216 216 214 216 213 209 207 199 197 199 203 205 208 205 198 195 200 216 234 257 272 281 278 267 265 271 273 278 283 284 283 284 292 296 298 302 303 303
216 216 216 216 219 215 217 216 215 216 211 210 203 200 202 204 207 209 207 198 194 201 214 225 271 280 287 290 292 291 293 291 292 297 292 286 286 287 290 292 295 298 296
212 212 215 216 217 215 216 218 215 216 215 213 207 203 204 206 209 209 207 200 197 202 214 230 256 271 281 291 299 307 312 307 303 301 305 298 288 291 291 290 291 295 291
216 213 214 217 214 214 215 219 218 214 216 214 212 207 206 207 209 209 207 205 203 212 221 239 250 267 282 284 287 295 303 307 304 301 300 303 302 298 297 299 300 303 302
223 217 212 216 216 212 214 218 221 216 217 216 214 212 210 209 211 211 210 211 214 223 233 237 248 260 273 273 282 295 310 314 300 294 298 302 302 303 305 309 310 310 307
207 214 214 214 214 214 214 217 220 220 219 218 217 215 212 211 212 214 215 216 219 220 229 235 248 259 271 275 277 291 306 311 309 300 295 294 296 299 300 301 302 303 305
205 218 217 214 212 214 215 216 220 220 219 219 219 218 216 214 214 216 219 219 222 222 228 235 244 260 265 268 278 294 305 311 310 300 298 295 295 297 296 296 298 300 299
215 212 223 211 212 214 215 218 221 221 220 219 219 219 218 217 216 218 220 222 226 228 231 236 242 254 266 264 272 286 300 306 305 299 299 299 300 302 302 300 300 298 296
209 200 205 202 215 216 214 216 221 223 220 219 220 221 220 220 220 219 220 223 227 230 233 238 243 254 262 261 264 276 287 298 305 304 299 301 302 304 308 306 302 303 303
231 203 202 218 204 213 219 217 218 222 222 220 220 222 223 222 222 223 222 224 226 231 234 238 243 252 258 258 262 271 280 291 299 304 302 300 302 303 305 308 307 304 301
221 218 213 217 211 210 216 216 217 219 222 220 220 222 223 225 225 225 225 226 228 231 233 238 244 252 257 258 261 269 276 284 291 296 301 301 301 302 301 305 306 307 298
227 221 211 210 194 196 206 215 214 217 221 222 222 223 223 225 226 226 227 227 228 229 233 238 244 251 254 258 261 267 273 278 288 290 295 297 298 299 294 297 304 305 302
226 234 226 223 212 196 207 217 211 215 219 221 222 224 225 226 227 229 230 230 231 232 234 238 243 250 254 258 264 267 274 281 286 286 288 292 294 302 296 292 303 304 299
231 227 220 210 207 197 195 199 210 218 223 223 222 225 226 228 229 230 231 233 234 236 239 243 247 249 253 256 261 265 268 278 280 281 285 289 291 296 298 296 299 298 296
234 231 227 227 216 204 216 217 214 218 221 222 225 226 228 229 230 231 232 235 237 239 242 245 250 252 253 255 259 261 269 273 272 276 280 283 289 293 295 293 296 292 294
238 233 238 239 230 220 215 189 205 211 224 218 222 227 228 227 229 232 234 236 239 241 244 248 250 252 252 257 258 258 264 267 270 278 280 279 286 290 291 291 290 291 295
238 240 237 241 239 241 245 227 206 196 210 226 225 221 227 226 225 229 233 235 238 242 247 248 251 251 252 259 263 266 267 287 277 283 283 277 284 288 290 286 288 291 288
238 239 239 240 244 252 260 249 269 240 214 218 219 225 233 240 236 229 227 231 239 245 243 248 253 255 258 261 266 274 271 279 281 280 283 281 283 283 290 282 285 287 291